FLOCK 4V-4 (46314 NORAD) Tracking and Keplerian Element Data

This shows tracking and keplerian element data for the satellite.

Feedback or suggestion? Click here.




ElementValue
Catalog46314
NameFLOCK 4V-4
Epoch Orbit1263
Epoch Day330.92234811
Epoch Year2020
RAAN42.5661
Inclination97.5115
Eccentricity0.0003063
Argument of Perigee8.5002
Mean Anonmoly351.6279
Mean Motion15.10961389
Decay Rate9.56E-06
L11 46314U 20061AU 20330.92234811 .00000956 00000-0 61132-4 0 9992
L22 46314 97.5115 42.5661 0003063 8.5002 351.6279 15.10961389 12637

Live tracking and technical data element details for FLOCK 4V-4 (NORAD 46314). FLOCK 4V-4 can be tracked NOW for your location showing map with azimuth and elevation plus other details from your city location.

Track the satellite on the map from your city or location and see movement details for azimuth, elevation, latitude, longitude, range, height, and movement on the map or in text.







IsCatalogInMostPopularTable: catalog: 46314, numindb: 17
Update: records affected: 1



GetName: 46314 FLOCK 4V-4

Hit Count: updated at: Fri, 27 Nov 2020 00:36:32 GMT